Content
SEND FEEDBACK

Daily
Averages
Monthly
Summary
United States of America

MALAMA-KI FOREST RESERVE, HAWAII


Home > North America > United States > Hawaii
Elevation: 223 meters     Latitude: 19 27N     Longitude: 154 55W

WEATHER
 
SELECT A DAY
Number of Records: 230,000;   Date Range: 1/1/95 - 7/26/14
 
SHARE

PRINT THIS DATA

[ ← Previous Day ]
WEATHER ALMANAC - 31 JANUARY, 2013
[ Next Day → ]
[ °F ]   °C
Weather ElementAverageHighLow
Temperature15.1 °C25.6 °C (3:53 pm) (9:20 pm)
Dewpoint11.9 °C19.4 °C (10:53 am) (7:00 pm)
Humidity79.7 %93 % (2:53 am)64 % (12:53 pm)
Barometer1017.9 hPa1019.6 hPa (9:53 pm)1016.3 hPa (3:53 am)
Wind Speed7.7 km/h13 km/h (1:53 pm)
Weather ElementAverage
Visibility15.4 km
Wind DirectionS (184.8 °)

Weather ElementTotal
Precipitation2.03 mm
Heating Degree Days14.4 (Base 18.3)
Averaged from 33 records on 31 January, 2013
WEATHER CONDITIONS BREAKOUT
WIND DIRECTION BREAKOUT
WEATHER BY HOUR - 31 JANUARY, 2013
[ °F ]   °C
Local TimeTemperatureDewpointHumidityBarometerVisibilityWind DirectionWind SpeedGust SpeedPrecipitationEventsConditions
1:53 AM20.6 °C18.9 °C90 %1016.9 hPa16.1 kmCalmOvercast
2:53 AM20 °C18.9 °C93 %1016.6 hPa16.1 kmCalmMostly Cloudy
3:53 AM20 °C18.3 °C90 %1016.3 hPa16.1 kmSW (230°)5.6 km/hOvercast
4:46 AM20 °C18.3 °C90 %1016.6 hPa16.1 kmCalmOvercast
4:53 AM20 °C18.3 °C90 %1016.6 hPa16.1 kmCalmOvercast
5:15 AM20 °C18.3 °C90 %1016.9 hPa16.1 kmCalmOvercast
5:53 AM20.6 °C18.9 °C90 %1017.3 hPa16.1 kmSE (140°)5.6 km/hOvercast
6:19 AM20.6 °C18.3 °C87 %1017.3 hPa16.1 kmSW (230°)7.4 km/hOvercast
6:53 AM20.6 °C18.3 °C87 %1017.6 hPa16.1 kmWest (280°)5.6 km/hOvercast
7:53 AM20.6 °C18.9 °C90 %1017.9 hPa16.1 kmWSW (250°)7.4 km/h0 mmOvercast
8:53 AM22.2 °C18.3 °C78 %1018.3 hPa16.1 kmWSW (250°)5.6 km/hOvercast
9:53 AM23.9 °C18.3 °C71 %1019 hPa16.1 kmEast (90°)7.4 km/hMostly Cloudy
10:53 AM23.3 °C19.4 °C79 %1018.6 hPa16.1 kmSouth (190°)5.6 km/h0 mmOvercast
11:53 AM23.9 °C18.9 °C73 %1017.9 hPa16.1 kmNorth (350°)9.3 km/hMostly Cloudy
12:53 PM25 °C17.8 °C64 %1017.3 hPa16.1 kmNorth (360°)7.4 km/hMostly Cloudy
1:53 PM25 °C18.3 °C66 %1016.9 hPa16.1 kmNNE (30°)13 km/hMostly Cloudy
2:53 PM25 °C18.3 °C66 %1016.6 hPa16.1 kmNorth (10°)11.1 km/hMostly Cloudy
3:53 PM25.6 °C18.9 °C66 %1016.6 hPa16.1 kmNorth (350°)9.3 km/hMostly Cloudy
4:19 PM23.9 °C19.4 °C76 %1016.9 hPa16.1 kmNNE (30°)11.1 km/h0 mmRainLight Rain
4:53 PM23.3 °C18.9 °C76 %1016.9 hPa16.1 kmNE (40°)13 km/h0 mmOvercast
5:11 PM23.9 °C18.9 °C73 %1017.3 hPa16.1 kmNNE (30°)11.1 km/hOvercast
5:53 PM22.8 °C18.3 °C76 %1017.3 hPa16.1 kmNNE (20°)9.3 km/hMostly Cloudy
6:53 PM22.8 °C17.8 °C73 %1017.9 hPa16.1 kmNorth (10°)9.3 km/hClear
7:34 PM22.8 °C18.9 °C79 %1018.6 hPa16.1 kmNW (320°)11.1 km/hMostly Cloudy
7:53 PM22.2 °C18.9 °C81 %1018.6 hPa16.1 kmNNW (330°)11.1 km/hOvercast
8:41 PM22.2 °C18.3 °C78 %1019.3 hPa16.1 kmNW (310°)11.1 km/hMostly Cloudy
8:53 PM22.2 °C18.9 °C81 %1019.3 hPa16.1 kmNW (320°)13 km/hMostly Cloudy
9:20 PM-17.8 °C-17.8 °C1019.3 hPa16.1 kmWNW (300°)9.3 km/hMostly Cloudy
9:53 PM-17.8 °C-17.8 °C1019.6 hPa16.1 kmWNW (290°)7.4 km/hOvercast
10:45 PM-17.8 °C-17.8 °C1019.6 hPa16.1 kmNW (320°)9.3 km/h0.51 mmOvercast
10:53 PM-17.8 °C-17.8 °C1019.6 hPa16.1 kmNW (310°)9.3 km/h0.51 mmOvercast
11:53 PM-17.8 °C-17.8 °C1019.3 hPa4.8 kmNorth (350°)11.1 km/h0 mmRainHeavy Rain
11:58 PM-17.8 °C-17.8 °C1019 hPa4 kmNorth (360°)9.3 km/h1.02 mmRainRain
Hourly data recorded from PHTO, located 0 kilometers away from Malama-Ki Forest Reserve, Hawaii







STORIES FROM OUR PARTNERS